Location: La Pernelle
(49.6188°N, 1.2999°W)
Time: 09:53:37
(UTC+00:00)

Cosmos 1452 Rocket - Pass Details

Date: 12 June 2021
Orbit: 768 x 774 km, 74.1° (Epoch: 26 July)

Event Time Altitude Azimuth Distance (km) Brightness Sun altitude
Exits shadow 21:39:09 - 182° (S) 2,565 5.7 -10.3°
Reaches altitude 10° 21:39:49 10° 181° (S) 2,315 5.5 -10.3°
Maximum altitude 21:44:53 51° 106° (ESE) 973 3.8 -10.8°
Drops below altitude 10° 21:49:59 10° 32° (NNE) 2,329 6.4 -11.2°
Sets 21:52:26 0° 28° (NNE) 3,260 7.2 -11.4°
